JF1AJE-13 Weather Reports


time (UTC)temp
F
wind
direction
speed
knots
gust
knots
rain 1hr
in
rain 24hr
in
rain mn
in
humidity
%
barometer
mb
20260509210552 55 4 0.0 0.0 0.00 0.00 0.00 59 1015.8
20260509204553 52 5 0.0 0.0 0.00 0.00 0.00 62 1015.8
20260509202554 51 5 0.0 0.0 0.00 0.00 0.00 61 1015.4
20260509200552 51 5 0.0 0.0 0.00 0.00 0.00 61 1015.2
20260509194551 52 5 0.0 0.0 0.00 0.00 0.00 59 1015.0
20260509192552 52 5 0.0 0.0 0.00 0.00 0.00 58 1014.6
20260509190553 53 5 0.0 0.0 0.00 0.00 0.00 57 1014.4
20260509184550 52 5 0.0 0.0 0.00 0.00 0.00 57 1014.3
20260509182553 52 5 0.0 0.0 0.00 0.00 0.00 57 1014.1
20260509180552 52 5 0.0 0.0 0.00 0.00 0.00 57 1013.9
20260509174550 52 5 0.0 0.0 0.00 0.00 0.00 55 1013.7
20260509172553 53 5 0.0 0.0 0.00 0.00 0.00 54 1013.4
20260509170553 53 5 0.0 0.0 0.00 0.00 0.00 53 1013.3
20260509164552 53 5 0.0 0.0 0.00 0.00 0.00 52 1013.4
20260509162552 54 5 0.0 0.0 0.00 0.00 0.00 50 1013.3
20260509160551 54 5 0.0 0.0 0.00 0.00 0.00 49 1013.2
20260509154552 55 5 0.0 0.0 0.00 0.00 0.00 47 1013.2
20260509152551 56 5 0.0 0.0 0.00 0.00 0.00 45 1013.2
20260509150552 56 5 0.0 0.0 0.00 0.00 0.00 44 1013.2
20260509144554 57 5 0.0 0.0 0.00 0.00 0.00 42 1013.1
20260509142550 57 5 0.0 0.0 0.00 0.00 0.00 40 1012.7
20260509140555 58 5 0.0 0.0 0.00 0.00 0.00 39 1012.6
20260509134552 58 5 0.0 0.0 0.00 0.00 0.00 38 1012.5
20260509132551 59 8 0.0 0.0 0.00 0.00 0.00 34 1012.4
20260509130551 60 38 0.0 0.0 0.00 0.00 0.00 31 1012.1
20260509124557 61 38 0.0 0.0 0.00 0.00 0.00 28 1012.0
20260509122551 62 38 0.0 0.0 0.00 0.00 0.00 27 1012.0
20260509120550 62 39 0.0 0.0 0.00 0.00 0.00 25 1012.0
20260509114550 63 41 0.0 0.0 0.00 0.00 0.00 25 1011.8
20260509112550 64 39 0.0 0.0 0.00 0.00 0.00 24 1011.4
20260509110553 64 39 0.0 0.0 0.00 0.00 0.00 24 1011.1
20260509104551 65 39 0.0 0.0 0.00 0.00 0.00 22 1011.0
20260509102552 65 1 0.0 0.0 0.00 0.00 0.00 21 1010.4
20260509100551 66 8 0.0 0.0 0.00 0.00 0.00 21 1010.0
20260509094553 67 21 0.0 0.0 0.00 0.00 0.00 20 1009.9
20260509092554 67 59 0.0 0.0 0.00 0.00 0.00 20 1009.4
20260509090552 68 322 0.0 0.0 0.00 0.00 0.00 19 1009.1
20260509084554 70 39 0.0 0.0 0.00 0.00 0.00 19 1008.8
20260509082552 71 42 0.0 0.0 0.00 0.00 0.00 18 1008.2
20260509080604 72 39 0.0 0.0 0.00 0.00 0.00 18 1007.9
20260509074552 72 39 0.0 0.0 0.00 0.00 0.00 19 1007.7
20260509072551 73 8 0.0 0.0 0.00 0.00 0.00 20 1006.8
20260509070552 74 337 0.0 0.0 0.00 0.00 0.00 19 1006.4
20260509064551 74 327 0.0 0.0 0.00 0.00 0.00 19 1006.2
20260509062552 74 334 0.0 0.0 0.00 0.00 0.00 18 1006.3
20260509060551 74 323 0.0 0.0 0.00 0.00 0.00 18 1006.1
20260509054600 74 343 0.0 0.0 0.00 0.00 0.00 19 1006.0
20260509052552 74 29 0.0 0.0 0.00 0.00 0.00 21 1006.0
20260509050552 74 348 0.0 0.0 0.00 0.00 0.00 21 1006.1
20260509044552 74 11 0.0 0.0 0.00 0.00 0.00 21 1006.0
20260509042552 74 14 0.0 0.0 0.00 0.00 0.00 22 1005.9
20260509040552 73 22 0.0 0.0 0.00 0.00 0.00 23 1006.2
20260509034551 73 320 0.0 0.0 0.00 0.00 0.00 24 1006.3
20260509032552 72 39 0.0 0.0 0.00 0.00 0.00 26 1006.1
20260509030552 73 18 0.0 0.0 0.00 0.00 0.00 20 1006.2
20260509024551 72 56 0.0 0.0 0.00 0.00 0.00 22 1006.2
20260509022553 71 302 0.0 0.0 0.00 0.00 0.00 22 1006.0
20260509020551 71 310 0.0 0.0 0.00 0.00 0.00 23 1006.3
20260509014552 71 350 0.0 0.0 0.00 0.00 0.00 24 1006.2
20260509012552 71 302 0.0 0.0 0.00 0.00 0.00 23 1006.1
20260509010552 70 323 0.0 0.0 0.00 0.00 0.00 23 1005.9
20260509004551 71 31 0.0 0.0 0.00 0.00 0.00 23 1005.7
20260509002552 70 275 0.0 0.0 0.00 0.00 0.00 23 1005.2
20260509000552 69 43 0.0 0.0 0.00 0.00 0.00 26 1005.2
20260508234553 69 350 0.0 0.0 0.00 0.00 0.00 24 1005.2
20260508232551 69 29 0.0 0.0 0.00 0.00 0.00 24 1004.6
20260508230551 68 340 0.0 0.0 0.00 0.00 0.00 24 1004.5
20260508224552 66 319 0.0 0.0 0.00 0.00 0.00 26 1004.3
20260508220551 66 26 0.0 0.0 0.00 0.00 0.00 27 1003.6
20260508214552 64 26 0.0 0.0 0.00 0.00 0.00 31 1003.2
20260508212553 60 337 0.0 0.0 0.00 0.00 0.00 42 1002.9